User: anonymous   Login
Location: Ostrava
(49.8330°N, 18.2830°E)
Time: 01:32:06
(UTC+01:00)
Language:

NOAA 19 - Orbit

View from above orbital plane
View from above orbital plane
View from above satellite
View from above satellite

Ground track
Ground track

The orbit data is extracted from the following two-line orbital elements,

1 33591U 09005A   15059.53024156  .00000223  00000-0  14638-3 0  9993
2 33591 098.9779 009.2221 0014917 114.3717 245.9013 14.11881702312164
Epoch (UTC): 28 February 2015 12:43:32
Eccentricity: 0.0014917
inclination: 98.9779°
perigee height: 842 km
apogee height: 864 km
right ascension of ascending node: 9.2221°
argument of perigee: 114.3717°
revolutions per day: 14.11881702
mean anomaly at epoch: 245.9013°
orbit number at epoch: 31216

The dashed part of the orbit path shows where the satellite is in the earth's shadow,  

DLR